SCP
0 0 0 0 0 0 0 0 0 0 0 0 0 0 0 0 0 0 0 -0 -0 0 -0 -0 -0 -0 -0 0 -0 0 0 0 0 0 0 0 -0 -0 -0 -0 0 0 0 0 0 0 0 0 0
0 0 0 0 0 0 0 0 0 0 0 0 0 0 0 0 0 0 0 0 0 0 0 0 0 0 0 0 0 0 0 0 0 0 0 -0 -0 -0 -0 -0 -0 -0 -0 -0 -0 -0 -0 0 0
0 0 0 0 0 0 0 0 0 0 0 0 0 0 0 0 0 -0 0 0 0 0 0 0 0 0 0 0 0 0 0 0 0 0 -0 -0 -0 -0 -0 -0 -0 -0 -0 -0 -0 -0 -0 -0 0
0 0 0 0 0 0 0 0 0 0 0 0 0 0 0 0 0 0 -0 0 0 0 0 0 0 0 0 0 0 0 0 0 0 -0 -0 -0 -0 -0 -0 -0 -0 -0 -0 -0 -0 -0 -0 -0 0
0 0 0 0 0 0 0 0 0 0 0 0 0 0 0 0 0 -0 -0 0 -0 0 0 0 0 -0 -0 0 0 0 0 0 0 0 0 0 0 -0 -0 -0 -0 -0 -0 -0 -0 -0 -0 -0 0
0 0 0 0 0 0 0 0 0 0 0 0 0 0 0 0 0 0 0 0 0 0 0 0 0 0 0 0 0 0 0 0 0 0 0 0 0 0 0 0 0 0 0 0 0 -0 0 0 0
0 0 0 0 0 0 0 0 0 0 0 0 0 0 0 0 0 0 0 0 0 0 0 0 0 0 0 0 0 0 0 0 0 0 0 0 0 0 0 0 0 0 0 0 0 0 0 0 0
0 0 0 0 0 0 0 0 0 0 0 0 0 0 0 0 0 0 0 0 0 0 0 0 0 0 0 0 0 0 0 0 0 0 0 0 0 0 0 0 0 0 0 0 -0 0 0 0 0
0 0 0 0 0 0 0 0 0 0 0 0 0 0 0 0 0 0 0 0 0 -0 -0 0 0 0 0 0 0 0 0 0 0 0 0 0 0 0 0 0 0 0 0 0 -0 -0 0 0 0
0 0 0 0 0 0 0 0 0 0 0 0 0 0 0 0 0 0 0 0 -0 -0 -0 -0 0 0 0 0 0 0 0 0 0 0 0 0 0 0 0 0 0 0 0 0 0 0 0 0 0
0 0 0 0 0 0 0 0 0 0 0 0 0 0 0 0 0 0 0 0 0 0 0 -0 -0 0 0 0 0 0 0 0 0 0 0 0 0 0 0 0 0 0 0 0 0 0 0 0 0
0 0 0 0 0 0 0 0 0 0 0 0 0 0 0 0 0 0 0 0 0 0 0 0 0 0 0 0 0 0 0 0 0 0 0 0 0 0 0 0 0 0 0 0 0 0 0 0 0
0 0 0 0 0 0 0 0 0 0 0 0 0 0 0 0 0 0 0 0 0 0 0 0 0 0 0 0 0 0 0 0 0 0 0 0 0 0 0 0 0 0 0 0 0 0 0 0 0
0 0 0 0 0 0 0 0 0 0 0 0 0 0 0 0 0 0 0 0 0 0 0 0 0 0 0 0 0 0 0 0 0 0 0 0 0 0 0 0 0 0 0 0 0 0 0 0 0
0 0 0 0 0 0 0 0 0 0 0 0 0 0 0 0 0 0 0 0 0 0 0 0 0 -0 0 0 0 0 0 0 0 0 0 0 0 0 0 0 0 0 0 0 0 0 0 0 0
0 0 0 0 0 0 0 0 0 0 0 0 0 0 0 0 0 0 0 0 0 0 0 0 0 0 0 0 0 0 0 0 0 0 0 0 0 0 0 0 0 0 0 0 0 0 0 0 0
0 0 0 0 0 0 0 0 0 0 0 0 0 0 0 0 0 0 0 0 0 0 0 0 0 0 0 0 0 0 0 0 0 0 0 0 0 0 0 0 0 0 0 0 0 0 0 0 0
0 0 0 0 0 0 0 0 0 0 0 0 0 0 0 0 0 0 0 0 0 0 0 0 0 0 0 0 0 0 0 0 0 0 0 0 0 0 0 0 0 0 0 0 0 0 0 0 0
0 0 0 0 0 0 0 0 0 0 0 0 0 0 0 0 0 0 0 0 0 0 0 0 0 0 0 0 0 0 0 0 0 0 0 0 0 0 0 0 0 0 0 0 0 0 0 0 0
0 0 0 0 0 0 0 0 0 0 0 0 0 0 0 0 0 0 0 0 0 0 0 0 0 0 0 0 0 0 0 0 0 0 0 0 0 0 0 0 0 0 0 0 0 0 0 -0 0
0 0 0 0 0 0 0 0 0 0 0 0 0 0 0 0 0 0 0 0 0 0 0 0 0 0 0 0 0 0 0 0 0 0 0 0 0 0 0 0 0 0 0 0 0 0 0 0 0
0 0 0 0 0 0 0 0 0 0 0 0 0 0 0 0 0 0 0 0 0 0 0 0 0 0 0 0 0 0 0 0 0 0 0 0 0 0 0 0 0 0 0 0 0 0 0 0 0
0 0 0 0 0 0 0 0 0 0 0 0 0 0 0 0 0 0 0 0 0 0 0 0 0 0 0 0 0 0 0 0 0 0 0 0 0 0 0 0 0 0 0 0 0 0 0 0 0
0 0 0 0 0 0 0 0 0 0 0 0 0 0 0 0 0 0 0 0 0 0 0 0 0 0 0 0 0 0 0 0 0 0 0 0 0 0 0 0 0 0 0 0 0 0 0 0 0
0 0 0 0 0 0 0 0 0 0 0 0 0 0 0 0 0 0 0 0 0 0 0 0 0 0 0 0 0 0 0 0 0 0 0 0 0 0 0 0 0 0 0 0 0 0 0 0 0
0 0 0 0 0 0 0 0 0 0 0 0 0 0 0 0 0 0 0 0 0 0 0 0 0 0 0 0 0 0 0 0 0 0 0 0 0 0 0 0 0 0 0 0 0 0 0 0 0
0 0 0 0 0 0 0 0 0 0 0 0 0 0 0 0 0 0 0 0 0 0 0 0 0 0 0 0 0 0 0 0 0 0 0 0 0 0 0 0 0 0 0 0 0 0 0 0 0
0 0 0 0 0 0 0 0 0 0 0 0 0 0 0 0 0 0 0 0 0 0 0 0 0 0 0 0 0 0 0 0 0 0 0 0 0 0 0 0 0 0 0 0 0 0 0 0 0
0 0 0 0 0 0 0 0 0 0 0 0 0 0 0 0 0 0 0 0 0 0 0 0 0 0 0 0 0 0 0 0 0 0 0 0 0 0 0 0 0 0 0 0 0 0 0 0 0
0 0 0 0 0 0 0 0 0 0 0 0 0 0 0 0 0 0 0 0 0 0 0 0 0 0 0 0 0 0 0 0 0 0 0 0 0 0 0 0 0 0 0 0 0 0 0 0 0
Wind_Speed_500mb
0 3 2 4 7 9 4 3 2 6 2 2 6 9 15 11 5 5 34 20 31 39 41 33 26 26 23 24 24 14 10 12 16 18 19 20 19 19 17 18 19 21 21 20 21 20 19 18 17
2 2 2 5 8 4 8 5 1 5 20 28 21 14 12 6 7 29 31 29 32 38 43 37 31 31 25 29 24 16 12 6 13 16 17 18 18 17 17 17 17 18 18 18 18 17 17 17 16
3 1 3 8 6 6 6 5 10 9 25 6 10 16 7 5 24 29 22 32 35 37 40 40 35 32 30 28 28 21 10 6 12 14 16 16 15 15 16 15 15 15 16 17 17 18 18 18 18
4 5 9 7 6 10 7 8 12 15 6 7 20 13 11 12 22 13 26 30 34 33 35 35 33 31 32 32 27 18 5 7 10 12 13 13 13 13 12 12 12 13 14 16 17 18 19 18 18
6 7 7 3 8 7 5 3 11 10 10 10 5 7 8 15 10 18 29 27 28 30 28 28 30 28 28 29 23 14 9 8 7 8 10 11 11 10 10 11 12 14 14 16 17 19 21 21 20
5 6 6 5 6 6 3 4 10 6 11 12 14 13 5 12 12 34 30 25 21 23 24 26 26 26 26 27 22 13 10 8 7 7 8 9 10 10 11 13 15 17 18 18 19 21 22 22 22
8 7 9 4 3 3 0 2 7 11 12 6 14 9 12 16 33 33 29 23 21 20 20 23 24 24 22 25 21 12 7 5 5 7 8 10 13 14 14 16 17 18 18 20 23 24 25 26 25
2 8 8 9 5 1 3 5 12 13 6 14 10 10 15 34 40 34 28 24 24 22 19 21 22 22 20 18 13 8 5 2 3 7 10 10 13 14 16 17 18 19 20 23 24 24 24 26 26
6 7 3 7 9 4 7 8 5 10 18 7 4 16 27 51 40 34 29 28 25 22 20 19 18 15 14 14 11 9 5 2 4 8 11 12 12 14 16 17 19 21 22 22 24 25 27 27 28
6 7 11 4 10 1 1 8 17 9 10 10 16 27 46 46 42 33 26 22 22 17 14 18 16 13 9 6 6 5 5 6 9 11 10 12 14 17 18 19 21 22 23 23 25 27 28 30 31
8 9 8 1 5 5 9 9 9 21 2 12 30 48 49 44 38 33 26 16 14 10 7 13 13 10 7 5 3 5 5 8 11 14 12 12 14 17 20 21 24 25 26 27 28 29 30 32 34
6 10 6 2 3 5 11 13 15 15 8 11 37 42 45 42 34 29 23 19 15 9 6 9 10 10 8 4 1 2 6 12 15 14 14 17 16 18 21 24 26 27 30 31 31 33 34 36 36
8 5 7 4 6 15 35 34 20 24 22 33 40 36 35 36 32 29 24 20 16 14 12 10 10 7 5 3 1 4 7 10 12 15 17 20 23 24 25 25 26 29 31 36 37 38 41 44 44
15 10 6 3 6 12 25 17 11 20 22 34 34 31 31 35 31 29 26 22 21 19 15 13 12 12 9 5 5 6 9 9 15 16 18 20 21 20 25 26 29 31 32 34 40 39 42 41 44
6 8 2 9 6 10 21 14 12 8 27 37 33 29 29 28 28 28 21 19 21 25 27 23 19 13 11 9 9 10 12 12 17 17 18 21 27 23 26 22 25 24 25 34 32 38 39 40 39
8 6 10 5 6 5 9 6 17 19 34 38 34 31 30 27 24 20 16 13 16 19 22 17 16 15 13 11 13 15 16 14 15 21 23 18 12 8 18 22 27 25 27 29 31 35 36 37 42
6 8 7 4 16 0 10 9 8 27 29 34 29 29 24 25 22 20 15 10 8 8 10 14 18 15 16 16 13 8 11 14 11 15 4 4 13 16 20 23 27 28 32 35 39 38 37 40 40
14 3 2 9 6 17 12 10 12 25 39 27 24 25 22 18 16 13 11 10 9 10 10 11 14 21 22 22 18 9 6 2 5 10 12 12 16 24 23 24 26 28 30 29 24 29 31 34 39
21 9 2 3 4 14 12 17 11 23 28 25 20 20 22 18 15 13 10 9 9 11 12 12 15 22 27 23 17 9 9 11 13 8 11 16 19 18 18 20 18 20 24 30 32 34 39 45 49
26 20 1 8 13 12 12 14 9 10 12 14 17 18 22 21 16 17 16 15 14 13 15 17 21 30 26 20 15 10 7 9 9 8 5 8 10 14 15 20 24 28 30 33 38 42 44 47 53
25 35 28 6 8 19 17 6 6 6 16 16 16 16 20 22 23 25 25 23 24 24 24 26 29 28 21 15 12 11 10 6 6 8 11 13 17 20 22 24 27 31 35 40 42 43 45 47 47
27 14 40 25 13 7 2 6 9 10 10 13 20 22 24 25 26 30 32 32 31 32 30 29 30 30 24 18 14 10 8 9 12 11 13 14 17 21 25 28 32 36 39 39 42 42 43 43 43
11 13 33 35 32 12 14 2 4 22 15 15 30 28 28 29 30 33 36 37 38 37 35 36 33 32 30 24 20 17 13 13 13 12 14 18 21 26 28 30 33 35 37 39 40 40 41 41 39
10 14 16 7 7 13 19 17 11 18 32 19 30 40 43 40 38 36 36 37 37 35 32 31 29 30 25 19 16 12 12 11 9 12 17 21 25 28 31 33 34 36 36 38 38 39 38 37 36
13 12 7 10 8 9 5 17 12 13 18 27 40 51 49 49 46 44 41 38 35 31 29 25 21 20 18 12 10 9 11 12 15 19 24 27 28 30 31 32 34 36 37 38 38 38 39 38 38
36 23 9 14 13 13 9 14 7 5 13 44 62 57 49 48 47 44 42 39 33 28 23 19 15 12 11 9 11 13 16 18 22 25 27 31 33 34 35 36 36 37 37 36 35 35 36 37 37
12 21 8 11 2 6 7 5 4 5 14 41 53 60 58 53 48 47 44 38 32 25 20 13 9 7 8 10 13 16 19 22 24 27 29 31 32 32 33 33 34 34 33 34 36 36 36 38 38
6 12 5 3 11 8 4 9 11 13 22 25 38 53 59 56 53 48 41 34 29 22 15 10 6 6 9 11 14 17 20 22 25 27 29 31 32 33 33 33 31 31 33 35 36 37 37 38 40
5 6 7 6 4 7 6 10 5 28 33 37 47 49 63 62 53 47 40 33 26 18 10 4 4 8 10 12 15 19 22 25 28 30 31 31 32 31 28 27 28 31 34 35 36 37 38 39 41
6 10 8 6 5 2 1 8 6 7 22 36 40 53 63 60 55 48 42 34 25 15 7 1 5 9 12 15 18 21 23 26 28 30 31 31 28 25 24 25 28 31 32 33 36 39 42 45 47
Wind_Direction_500mb
147 196 307 330 44 62 267 226 70 104 70 300 126 139 122 55 70 180 140 151 156 158 159 153 153 141 140 135 137 120 135 83 91 94 95 92 85 80 72 63 56 53 50 47 44 41 39 37 36
277 59 353 69 86 78 268 300 93 157 134 102 87 82 50 67 70 135 139 147 155 158 156 157 153 147 156 140 142 156 163 78 90 95 93 85 77 70 62 55 50 45 40 37 35 30 25 20 18
16 107 77 92 108 186 209 209 168 111 155 31 106 71 69 60 120 134 142 148 158 160 162 162 163 162 155 142 154 166 173 98 93 88 86 83 74 60 54 45 39 36 31 24 21 16 11 4 2
28 104 70 88 232 255 206 185 144 120 123 114 114 69 81 118 126 129 146 148 157 160 162 168 169 169 161 159 165 175 177 104 95 89 81 70 60 52 43 36 24 18 14 8 5 0 357 353 350
104 97 72 89 253 264 236 203 156 133 109 117 129 122 76 152 135 151 145 149 159 159 162 169 173 173 170 178 185 178 149 118 97 80 69 59 50 41 30 19 9 1 359 356 356 351 347 345 342
96 102 78 218 252 289 246 221 155 117 104 124 108 99 78 152 162 148 141 146 160 163 160 164 164 160 159 155 161 159 148 129 88 66 52 36 22 10 2 356 352 351 350 352 352 349 346 343 341
121 95 178 174 274 285 50 108 172 110 112 91 128 88 125 136 145 140 140 145 157 162 164 164 165 164 159 164 172 171 157 125 74 49 24 7 360 357 353 352 350 350 353 350 345 343 344 344 340
136 97 154 196 201 185 2 90 119 101 103 132 138 152 156 153 151 147 145 147 158 163 163 170 173 175 176 180 190 178 166 149 23 22 16 15 6 360 360 1 356 351 349 346 343 341 339 339 339
145 64 205 178 145 243 147 121 112 119 131 91 84 151 149 153 153 156 151 153 159 163 172 170 176 183 191 196 204 206 206 236 337 352 1 2 359 357 355 351 347 342 342 339 337 337 336 336 336
119 126 222 234 172 168 155 136 132 141 111 72 83 128 146 156 157 163 164 159 168 166 176 184 176 181 198 214 242 266 296 331 355 0 357 357 353 349 346 343 340 339 336 335 333 331 330 329 329
169 187 202 337 228 209 165 113 100 121 134 184 157 145 153 159 161 172 175 167 158 162 174 181 186 184 193 234 260 312 338 356 358 354 348 343 345 349 347 341 339 338 336 335 329 326 324 323 322
159 229 205 279 216 157 140 118 77 53 335 151 143 148 156 161 167 171 175 171 178 185 175 179 180 174 167 163 141 307 339 338 346 344 344 344 341 348 343 345 349 346 341 339 337 333 329 323 319
180 212 200 198 141 119 102 74 85 53 101 133 141 144 149 156 168 173 179 180 201 207 213 206 207 200 181 142 29 347 332 316 323 336 338 328 327 329 327 330 325 325 322 324 329 329 326 327 329
204 193 144 118 129 84 98 39 142 50 122 123 137 138 149 165 169 175 186 189 195 203 212 219 236 217 210 224 285 302 310 317 310 310 307 306 314 315 314 318 317 312 312 320 316 318 319 320 320
160 158 56 50 322 109 107 40 42 90 137 122 115 118 124 135 163 184 189 206 208 203 207 223 226 215 221 205 216 242 263 275 281 284 292 303 287 302 300 294 323 323 313 319 321 313 313 312 314
127 94 153 351 354 28 154 148 7 131 133 112 118 117 120 119 136 143 169 188 187 198 194 200 204 207 207 227 247 237 240 253 277 286 290 300 318 339 322 318 323 329 333 331 328 324 319 315 311
40 186 159 180 22 65 66 140 336 130 128 117 114 116 113 120 130 140 152 165 171 185 194 192 203 184 191 216 225 222 273 285 279 277 157 336 330 342 337 335 329 324 318 316 314 318 318 319 320
152 234 182 157 4 41 76 111 87 102 138 116 115 111 114 112 110 123 148 174 198 205 199 182 186 192 196 206 222 217 252 212 131 343 351 343 335 317 323 318 318 315 318 322 343 348 351 342 336
201 156 9 70 125 74 72 97 71 110 105 116 117 116 118 108 100 110 125 148 181 199 197 179 167 171 190 195 215 229 253 260 278 308 317 319 317 321 328 329 339 353 351 351 346 345 343 340 337
175 189 338 94 26 86 107 80 79 63 97 127 148 140 121 118 122 118 119 124 135 140 148 156 161 164 179 192 201 214 218 252 280 294 319 354 18 26 15 3 356 351 346 342 341 341 341 344 345
196 192 177 196 83 50 120 97 161 83 119 137 138 140 134 135 131 124 123 122 119 123 128 134 142 144 153 168 174 200 210 181 119 79 65 42 18 5 359 354 349 344 343 342 344 342 341 342 346
210 189 185 164 164 182 321 201 206 177 179 168 161 163 148 140 134 126 122 122 118 114 118 126 133 139 147 156 166 169 167 145 95 60 34 17 359 351 348 347 344 343 342 339 342 343 343 343 344
230 151 164 177 188 141 191 254 259 160 205 206 191 172 156 147 140 132 127 122 116 116 118 119 122 125 124 128 126 124 114 83 59 22 1 353 349 344 342 343 343 341 343 344 343 344 346 347 349
134 98 51 73 163 206 174 186 209 191 197 178 176 178 163 156 150 141 131 126 122 118 116 116 120 114 110 109 102 87 65 47 12 346 335 340 345 344 343 345 345 345 344 345 347 348 347 349 352
184 160 146 198 214 227 200 201 245 201 180 171 166 175 171 162 159 153 147 142 135 133 128 125 113 112 99 83 62 33 17 1 345 345 345 346 346 344 342 346 346 346 347 347 347 348 348 351 352
196 198 154 187 185 193 147 225 218 253 251 171 173 173 170 169 163 156 153 149 143 137 133 125 111 96 77 38 15 4 356 350 349 350 347 345 344 343 344 344 346 345 345 345 348 349 350 352 352
189 201 140 110 55 92 194 307 237 100 112 148 155 169 175 174 165 163 155 152 151 145 137 128 111 77 41 11 4 351 350 351 347 347 344 342 341 339 340 341 342 344 346 348 349 350 350 351 352
170 146 128 26 162 189 248 283 232 193 163 157 162 167 173 176 169 163 158 158 152 150 146 126 93 37 9 354 355 347 346 346 344 342 340 339 338 336 335 337 342 345 346 346 346 347 348 348 347
119 153 92 87 151 166 158 247 228 188 182 178 174 169 168 170 170 166 165 164 162 159 146 114 25 5 350 343 345 343 345 343 340 336 334 329 328 328 329 335 341 343 342 343 342 342 342 340 339
129 147 144 175 207 120 65 281 341 222 180 173 160 162 176 175 174 173 174 174 168 164 157 38 342 330 331 336 338 338 335 334 329 326 322 321 321 323 328 334 338 338 337 339 339 338 336 336 336
Wind_Speed_850mb
0 3 2 4 7 9 4 3 2 6 2 2 6 9 15 11 5 5 34 20 31 39 41 33 26 26 23 24 24 14 10 12 16 18 19 20 19 19 17 18 19 21 21 20 21 20 19 18 17
2 2 2 5 8 4 8 5 1 5 20 28 21 14 12 6 7 29 31 29 32 38 43 37 31 31 25 29 24 16 12 6 13 16 17 18 18 17 17 17 17 18 18 18 18 17 17 17 16
3 1 3 8 6 6 6 5 10 9 25 6 10 16 7 5 24 29 22 32 35 37 40 40 35 32 30 28 28 21 10 6 12 14 16 16 15 15 16 15 15 15 16 17 17 18 18 18 18
4 5 9 7 6 10 7 8 12 15 6 7 20 13 11 12 22 13 26 30 34 33 35 35 33 31 32 32 27 18 5 7 10 12 13 13 13 13 12 12 12 13 14 16 17 18 19 18 18
6 7 7 3 8 7 5 3 11 10 10 10 5 7 8 15 10 18 29 27 28 30 28 28 30 28 28 29 23 14 9 8 7 8 10 11 11 10 10 11 12 14 14 16 17 19 21 21 20
5 6 6 5 6 6 3 4 10 6 11 12 14 13 5 12 12 34 30 25 21 23 24 26 26 26 26 27 22 13 10 8 7 7 8 9 10 10 11 13 15 17 18 18 19 21 22 22 22
8 7 9 4 3 3 0 2 7 11 12 6 14 9 12 16 33 33 29 23 21 20 20 23 24 24 22 25 21 12 7 5 5 7 8 10 13 14 14 16 17 18 18 20 23 24 25 26 25
2 8 8 9 5 1 3 5 12 13 6 14 10 10 15 34 40 34 28 24 24 22 19 21 22 22 20 18 13 8 5 2 3 7 10 10 13 14 16 17 18 19 20 23 24 24 24 26 26
6 7 3 7 9 4 7 8 5 10 18 7 4 16 27 51 40 34 29 28 25 22 20 19 18 15 14 14 11 9 5 2 4 8 11 12 12 14 16 17 19 21 22 22 24 25 27 27 28
6 7 11 4 10 1 1 8 17 9 10 10 16 27 46 46 42 33 26 22 22 17 14 18 16 13 9 6 6 5 5 6 9 11 10 12 14 17 18 19 21 22 23 23 25 27 28 30 31
8 9 8 1 5 5 9 9 9 21 2 12 30 48 49 44 38 33 26 16 14 10 7 13 13 10 7 5 3 5 5 8 11 14 12 12 14 17 20 21 24 25 26 27 28 29 30 32 34
6 10 6 2 3 5 11 13 15 15 8 11 37 42 45 42 34 29 23 19 15 9 6 9 10 10 8 4 1 2 6 12 15 14 14 17 16 18 21 24 26 27 30 31 31 33 34 36 36
8 5 7 4 6 15 35 34 20 24 22 33 40 36 35 36 32 29 24 20 16 14 12 10 10 7 5 3 1 4 7 10 12 15 17 20 23 24 25 25 26 29 31 36 37 38 41 44 44
15 10 6 3 6 12 25 17 11 20 22 34 34 31 31 35 31 29 26 22 21 19 15 13 12 12 9 5 5 6 9 9 15 16 18 20 21 20 25 26 29 31 32 34 40 39 42 41 44
6 8 2 9 6 10 21 14 12 8 27 37 33 29 29 28 28 28 21 19 21 25 27 23 19 13 11 9 9 10 12 12 17 17 18 21 27 23 26 22 25 24 25 34 32 38 39 40 39
8 6 10 5 6 5 9 6 17 19 34 38 34 31 30 27 24 20 16 13 16 19 22 17 16 15 13 11 13 15 16 14 15 21 23 18 12 8 18 22 27 25 27 29 31 35 36 37 42
6 8 7 4 16 0 10 9 8 27 29 34 29 29 24 25 22 20 15 10 8 8 10 14 18 15 16 16 13 8 11 14 11 15 4 4 13 16 20 23 27 28 32 35 39 38 37 40 40
14 3 2 9 6 17 12 10 12 25 39 27 24 25 22 18 16 13 11 10 9 10 10 11 14 21 22 22 18 9 6 2 5 10 12 12 16 24 23 24 26 28 30 29 24 29 31 34 39
21 9 2 3 4 14 12 17 11 23 28 25 20 20 22 18 15 13 10 9 9 11 12 12 15 22 27 23 17 9 9 11 13 8 11 16 19 18 18 20 18 20 24 30 32 34 39 45 49
26 20 1 8 13 12 12 14 9 10 12 14 17 18 22 21 16 17 16 15 14 13 15 17 21 30 26 20 15 10 7 9 9 8 5 8 10 14 15 20 24 28 30 33 38 42 44 47 53
25 35 28 6 8 19 17 6 6 6 16 16 16 16 20 22 23 25 25 23 24 24 24 26 29 28 21 15 12 11 10 6 6 8 11 13 17 20 22 24 27 31 35 40 42 43 45 47 47
27 14 40 25 13 7 2 6 9 10 10 13 20 22 24 25 26 30 32 32 31 32 30 29 30 30 24 18 14 10 8 9 12 11 13 14 17 21 25 28 32 36 39 39 42 42 43 43 43
11 13 33 35 32 12 14 2 4 22 15 15 30 28 28 29 30 33 36 37 38 37 35 36 33 32 30 24 20 17 13 13 13 12 14 18 21 26 28 30 33 35 37 39 40 40 41 41 39
10 14 16 7 7 13 19 17 11 18 32 19 30 40 43 40 38 36 36 37 37 35 32 31 29 30 25 19 16 12 12 11 9 12 17 21 25 28 31 33 34 36 36 38 38 39 38 37 36
13 12 7 10 8 9 5 17 12 13 18 27 40 51 49 49 46 44 41 38 35 31 29 25 21 20 18 12 10 9 11 12 15 19 24 27 28 30 31 32 34 36 37 38 38 38 39 38 38
36 23 9 14 13 13 9 14 7 5 13 44 62 57 49 48 47 44 42 39 33 28 23 19 15 12 11 9 11 13 16 18 22 25 27 31 33 34 35 36 36 37 37 36 35 35 36 37 37
12 21 8 11 2 6 7 5 4 5 14 41 53 60 58 53 48 47 44 38 32 25 20 13 9 7 8 10 13 16 19 22 24 27 29 31 32 32 33 33 34 34 33 34 36 36 36 38 38
6 12 5 3 11 8 4 9 11 13 22 25 38 53 59 56 53 48 41 34 29 22 15 10 6 6 9 11 14 17 20 22 25 27 29 31 32 33 33 33 31 31 33 35 36 37 37 38 40
5 6 7 6 4 7 6 10 5 28 33 37 47 49 63 62 53 47 40 33 26 18 10 4 4 8 10 12 15 19 22 25 28 30 31 31 32 31 28 27 28 31 34 35 36 37 38 39 41
6 10 8 6 5 2 1 8 6 7 22 36 40 53 63 60 55 48 42 34 25 15 7 1 5 9 12 15 18 21 23 26 28 30 31 31 28 25 24 25 28 31 32 33 36 39 42 45 47
Wind_Direction_850mb
147 196 307 330 44 62 267 226 70 104 70 300 126 139 122 55 70 180 140 151 156 158 159 153 153 141 140 135 137 120 135 83 91 94 95 92 85 80 72 63 56 53 50 47 44 41 39 37 36
277 59 353 69 86 78 268 300 93 157 134 102 87 82 50 67 70 135 139 147 155 158 156 157 153 147 156 140 142 156 163 78 90 95 93 85 77 70 62 55 50 45 40 37 35 30 25 20 18
16 107 77 92 108 186 209 209 168 111 155 31 106 71 69 60 120 134 142 148 158 160 162 162 163 162 155 142 154 166 173 98 93 88 86 83 74 60 54 45 39 36 31 24 21 16 11 4 2
28 104 70 88 232 255 206 185 144 120 123 114 114 69 81 118 126 129 146 148 157 160 162 168 169 169 161 159 165 175 177 104 95 89 81 70 60 52 43 36 24 18 14 8 5 0 357 353 350
104 97 72 89 253 264 236 203 156 133 109 117 129 122 76 152 135 151 145 149 159 159 162 169 173 173 170 178 185 178 149 118 97 80 69 59 50 41 30 19 9 1 359 356 356 351 347 345 342
96 102 78 218 252 289 246 221 155 117 104 124 108 99 78 152 162 148 141 146 160 163 160 164 164 160 159 155 161 159 148 129 88 66 52 36 22 10 2 356 352 351 350 352 352 349 346 343 341
121 95 178 174 274 285 50 108 172 110 112 91 128 88 125 136 145 140 140 145 157 162 164 164 165 164 159 164 172 171 157 125 74 49 24 7 360 357 353 352 350 350 353 350 345 343 344 344 340
136 97 154 196 201 185 2 90 119 101 103 132 138 152 156 153 151 147 145 147 158 163 163 170 173 175 176 180 190 178 166 149 23 22 16 15 6 360 360 1 356 351 349 346 343 341 339 339 339
145 64 205 178 145 243 147 121 112 119 131 91 84 151 149 153 153 156 151 153 159 163 172 170 176 183 191 196 204 206 206 236 337 352 1 2 359 357 355 351 347 342 342 339 337 337 336 336 336
119 126 222 234 172 168 155 136 132 141 111 72 83 128 146 156 157 163 164 159 168 166 176 184 176 181 198 214 242 266 296 331 355 0 357 357 353 349 346 343 340 339 336 335 333 331 330 329 329
169 187 202 337 228 209 165 113 100 121 134 184 157 145 153 159 161 172 175 167 158 162 174 181 186 184 193 234 260 312 338 356 358 354 348 343 345 349 347 341 339 338 336 335 329 326 324 323 322
159 229 205 279 216 157 140 118 77 53 335 151 143 148 156 161 167 171 175 171 178 185 175 179 180 174 167 163 141 307 339 338 346 344 344 344 341 348 343 345 349 346 341 339 337 333 329 323 319
180 212 200 198 141 119 102 74 85 53 101 133 141 144 149 156 168 173 179 180 201 207 213 206 207 200 181 142 29 347 332 316 323 336 338 328 327 329 327 330 325 325 322 324 329 329 326 327 329
204 193 144 118 129 84 98 39 142 50 122 123 137 138 149 165 169 175 186 189 195 203 212 219 236 217 210 224 285 302 310 317 310 310 307 306 314 315 314 318 317 312 312 320 316 318 319 320 320
160 158 56 50 322 109 107 40 42 90 137 122 115 118 124 135 163 184 189 206 208 203 207 223 226 215 221 205 216 242 263 275 281 284 292 303 287 302 300 294 323 323 313 319 321 313 313 312 314
127 94 153 351 354 28 154 148 7 131 133 112 118 117 120 119 136 143 169 188 187 198 194 200 204 207 207 227 247 237 240 253 277 286 290 300 318 339 322 318 323 329 333 331 328 324 319 315 311
40 186 159 180 22 65 66 140 336 130 128 117 114 116 113 120 130 140 152 165 171 185 194 192 203 184 191 216 225 222 273 285 279 277 157 336 330 342 337 335 329 324 318 316 314 318 318 319 320
152 234 182 157 4 41 76 111 87 102 138 116 115 111 114 112 110 123 148 174 198 205 199 182 186 192 196 206 222 217 252 212 131 343 351 343 335 317 323 318 318 315 318 322 343 348 351 342 336
201 156 9 70 125 74 72 97 71 110 105 116 117 116 118 108 100 110 125 148 181 199 197 179 167 171 190 195 215 229 253 260 278 308 317 319 317 321 328 329 339 353 351 351 346 345 343 340 337
175 189 338 94 26 86 107 80 79 63 97 127 148 140 121 118 122 118 119 124 135 140 148 156 161 164 179 192 201 214 218 252 280 294 319 354 18 26 15 3 356 351 346 342 341 341 341 344 345
196 192 177 196 83 50 120 97 161 83 119 137 138 140 134 135 131 124 123 122 119 123 128 134 142 144 153 168 174 200 210 181 119 79 65 42 18 5 359 354 349 344 343 342 344 342 341 342 346
210 189 185 164 164 182 321 201 206 177 179 168 161 163 148 140 134 126 122 122 118 114 118 126 133 139 147 156 166 169 167 145 95 60 34 17 359 351 348 347 344 343 342 339 342 343 343 343 344
230 151 164 177 188 141 191 254 259 160 205 206 191 172 156 147 140 132 127 122 116 116 118 119 122 125 124 128 126 124 114 83 59 22 1 353 349 344 342 343 343 341 343 344 343 344 346 347 349
134 98 51 73 163 206 174 186 209 191 197 178 176 178 163 156 150 141 131 126 122 118 116 116 120 114 110 109 102 87 65 47 12 346 335 340 345 344 343 345 345 345 344 345 347 348 347 349 352
184 160 146 198 214 227 200 201 245 201 180 171 166 175 171 162 159 153 147 142 135 133 128 125 113 112 99 83 62 33 17 1 345 345 345 346 346 344 342 346 346 346 347 347 347 348 348 351 352
196 198 154 187 185 193 147 225 218 253 251 171 173 173 170 169 163 156 153 149 143 137 133 125 111 96 77 38 15 4 356 350 349 350 347 345 344 343 344 344 346 345 345 345 348 349 350 352 352
189 201 140 110 55 92 194 307 237 100 112 148 155 169 175 174 165 163 155 152 151 145 137 128 111 77 41 11 4 351 350 351 347 347 344 342 341 339 340 341 342 344 346 348 349 350 350 351 352
170 146 128 26 162 189 248 283 232 193 163 157 162 167 173 176 169 163 158 158 152 150 146 126 93 37 9 354 355 347 346 346 344 342 340 339 338 336 335 337 342 345 346 346 346 347 348 348 347
119 153 92 87 151 166 158 247 228 188 182 178 174 169 168 170 170 166 165 164 162 159 146 114 25 5 350 343 345 343 345 343 340 336 334 329 328 328 329 335 341 343 342 343 342 342 342 340 339
129 147 144 175 207 120 65 281 341 222 180 173 160 162 176 175 174 173 174 174 168 164 157 38 342 330 331 336 338 338 335 334 329 326 322 321 321 323 328 334 338 338 337 339 339 338 336 336 336